Home > Weather > Wittmund > Past weeks

Flag for Germany Past Weather in Wittmund, Lower Saxony, Germany — Yesterday and Last 2 Weeks

Now
64 °F

Broken clouds.


Feels Like: 64 °F
Forecast: 57 / 65 °F
Wind: 7 mph from Southwest

Location: Wittmundhaven

Current Time: Jun 28, 2016 at 3:23:18 PM

Latest Report: Jun 28, 2016 at 2:20 PM


Visibility: N/A

Pressure: 30.04 "Hg

Humidity: 52%

Dew Point: 46 °F

Location of WittmundLocation

Past Weather in Wittmund — Graph

°F

Wittmund Temperature Yesterday

Maximum temperature yesterday: 63 °F (at 11:20 AM)
Minimum temperature yesterday: 52 °F (at 2:20 AM)
Average temperature yesterday: 58 °F

High & Low Weather Summary for the Past Weeks

 TemperatureHumidityPressure
High79 °F (Jun 23, 11:20 AM)100% (Jun 13, 11:20 PM)30.21 "Hg (Jun 13, 11:20 PM)
Low50 °F (Jun 28, 6:20 AM)53% (Jun 16, 2:20 PM)29.45 "Hg (Jun 14, 5:20 AM)
Average61 °F84%29.88 "Hg
* Reported Jun 13 1:20 PM — Jun 28 1:20 PM, Wittmund, Weather by CustomWeather, © 2016

Note: Actual official high and low records may vary slightly from our data, if they occured in-between our weather recording intervals... More about our weather records

Advertising

Wittmund Weather History for the Previous 24 Hours

Scroll right to see more
 ConditionsComfort  
Time TempWeatherWind HumidityBarometerVisibility
1:20 PM
Tue, Jun 28
64 °FScattered clouds.8 mph56%30.04 "HgN/A
12:20 PM64 °FScattered clouds.8 mph56%30.04 "HgN/A
11:20 AM63 °FScattered clouds.6 mph59%30.07 "HgN/A
10:20 AM64 °FScattered clouds.10 mph56%30.07 "HgN/A
9:20 AM61 °FScattered clouds.8 mph72%30.07 "HgN/A
8:20 AM59 °FScattered clouds.6 mph72%30.07 "HgN/A
7:20 AM54 °FPassing clouds.2 mph88%30.04 "HgN/A
6:20 AM50 °FFog.3 mph100%30.07 "HgN/A
5:20 AM52 °FFog.3 mph94%30.04 "HgN/A
4:20 AM52 °FFog.3 mph94%30.04 "HgN/A
3:20 AM52 °FPassing clouds.3 mph94%30.04 "HgN/A
2:20 AM52 °FPassing clouds.3 mph94%30.04 "HgN/A
1:20 AM55 °FPassing clouds.5 mph88%30.04 "HgN/A
12:20 AM55 °FPassing clouds.6 mph88%30.04 "HgN/A
11:20 PM
Mon, Jun 27
57 °FPassing clouds.5 mph88%30.04 "HgN/A
10:20 PM57 °FPartly sunny.6 mph88%30.01 "HgN/A
9:20 PM59 °FPartly sunny.7 mph88%30.01 "HgN/A
8:20 PM59 °FSprinkles. Partly sunny.10 mph88%30.01 "HgN/A
7:20 PM61 °FPassing clouds.13 mph83%29.98 "HgN/A
6:20 PM63 °FPartly sunny.12 mph83%29.98 "HgN/A
5:51 PM61 °FPartly sunny.9 mph94%29.98 "HgN/A
5:20 PM61 °FDrizzle. Fog.8 mph94%29.98 "Hg2 mi
4:20 PM61 °FDrizzle. Fog.12 mph94%29.95 "Hg1 mi
3:20 PM61 °FDrizzle. Fog.14 mph94%29.95 "Hg2 mi
Weather by CustomWeather, © 2016

See weather overviewHow to use our weather pages